Time,TemperatureF,DewpointF,PressureIn,WindDirection,WindDirectionDegrees,WindSpeedMPH,WindSpeedGustMPH,Humidity,HourlyPrecipIn,Conditions,Clouds,dailyrainin,SoftwareType,DateUTC
2013-03-25 00:03:00,50.8,24.8,29.90,NNW,344,6.0,7.0,36,0.00,,,0.00,WUHU216DAVISVP2,2013-03-25 07:03:00,
2013-03-25 00:08:00,50.6,24.4,29.89,NNW,344,5.0,7.0,36,0.00,,,0.00,WUHU216DAVISVP2,2013-03-25 07:08:00,
2013-03-25 00:13:00,50.7,24.5,29.89,NNW,344,4.0,7.0,36,0.00,,,0.00,WUHU216DAVISVP2,2013-03-25 07:13:00,
2013-03-25 00:18:00,50.1,24.6,29.89,NNW,344,6.0,7.0,37,0.00,,,0.00,WUHU216DAVISVP2,2013-03-25 07:18:00,
2013-03-25 00:23:00,50.7,25.1,29.89,North,351,5.0,8.0,37,0.00,,,0.00,WUHU216DAVISVP2,2013-03-25 07:23:00,
2013-03-25 00:29:00,51.6,25.9,29.89,North,351,5.0,8.0,37,0.00,,,0.00,WUHU216DAVISVP2,2013-03-25 07:29:00,
2013-03-25 00:34:00,51.7,25.4,29.89,North,351,0.0,8.0,36,0.00,,,0.00,WUHU216DAVISVP2,2013-03-25 07:34:00,
2013-03-25 00:39:00,51.7,26.7,29.89,North,351,2.0,8.0,38,0.00,,,0.00,WUHU216DAVISVP2,2013-03-25 07:39:00,
2013-03-25 00:44:00,51.6,25.9,29.89,North,351,3.0,6.0,37,0.00,,,0.00,WUHU216DAVISVP2,2013-03-25 07:44:00,
2013-03-25 00:49:00,51.1,25.5,29.88,North,349,6.0,8.0,37,0.00,,,0.00,WUHU216DAVISVP2,2013-03-25 07:49:00,
2013-03-25 00:55:00,51.2,25.6,29.88,North,360,7.0,10.0,37,0.00,,,0.00,WUHU216DAVISVP2,2013-03-25 07:55:00,
2013-03-25 01:00:00,51.3,25.0,29.88,North,360,6.0,10.0,36,0.00,,,0.00,WUHU216DAVISVP2,2013-03-25 08:00:00,
2013-03-25 01:05:00,51.0,24.7,29.88,North,360,3.0,10.0,36,0.00,,,0.00,WUHU216DAVISVP2,2013-03-25 08:05:00,
2013-03-25 01:10:00,50.5,25.0,29.88,North,360,0.0,10.0,37,0.00,,,0.00,WUHU216DAVISVP2,2013-03-25 08:10:00,
2013-03-25 01:15:00,50.2,25.3,29.88,North,360,0.0,8.0,38,0.00,,,0.00,WUHU216DAVISVP2,2013-03-25 08:15:00,
2013-03-25 01:21:00,49.4,24.6,29.88,North,360,1.0,6.0,38,0.00,,,0.00,WUHU216DAVISVP2,2013-03-25 08:21:00,
2013-03-25 01:26:00,49.2,25.1,29.88,NNW,334,0.0,8.0,39,0.00,,,0.00,WUHU216DAVISVP2,2013-03-25 08:26:00,
2013-03-25 01:31:00,49.1,25.0,29.88,NNW,334,4.0,8.0,39,0.00,,,0.00,WUHU216DAVISVP2,2013-03-25 08:31:00,
2013-03-25 01:36:00,49.0,24.3,29.88,NNW,339,7.0,9.0,38,0.00,,,0.00,WUHU216DAVISVP2,2013-03-25 08:36:00,
2013-03-25 01:41:00,48.9,24.2,29.88,WNW,295,5.0,9.0,38,0.00,,,0.00,WUHU216DAVISVP2,2013-03-25 08:41:00,
2013-03-25 01:47:00,48.5,24.5,29.88,WNW,295,2.0,9.0,39,0.00,,,0.00,WUHU216DAVISVP2,2013-03-25 08:47:00,
2013-03-25 01:52:00,48.3,24.3,29.88,WNW,295,5.0,9.0,39,0.00,,,0.00,WUHU216DAVISVP2,2013-03-25 08:52:00,
2013-03-25 01:57:00,48.1,24.1,29.88,WNW,295,0.0,5.0,39,0.00,,,0.00,WUHU216DAVISVP2,2013-03-25 08:57:00,
2013-03-25 02:02:00,48.0,24.0,29.88,WNW,295,2.0,5.0,39,0.00,,,0.00,WUHU216DAVISVP2,2013-03-25 09:02:00,
2013-03-25 02:07:00,47.3,24.0,29.88,NW,304,1.0,6.0,40,0.00,,,0.00,WUHU216DAVISVP2,2013-03-25 09:07:00,
2013-03-25 02:12:00,46.9,24.2,29.88,NW,304,3.0,6.0,41,0.00,,,0.00,WUHU216DAVISVP2,2013-03-25 09:12:00,
2013-03-25 02:18:00,47.1,24.4,29.88,NW,325,4.0,7.0,41,0.00,,,0.00,WUHU216DAVISVP2,2013-03-25 09:18:00,
2013-03-25 02:23:00,47.9,23.9,29.88,NW,324,8.0,9.0,39,0.00,,,0.00,WUHU216DAVISVP2,2013-03-25 09:23:00,
2013-03-25 02:28:00,47.3,24.0,29.88,NNW,327,5.0,9.0,40,0.00,,,0.00,WUHU216DAVISVP2,2013-03-25 09:28:00,
2013-03-25 02:33:00,47.3,24.0,29.88,NNW,327,2.0,9.0,40,0.00,,,0.00,WUHU216DAVISVP2,2013-03-25 09:33:00,
2013-03-25 02:38:00,47.1,23.8,29.88,NNW,338,6.0,9.0,40,0.00,,,0.00,WUHU216DAVISVP2,2013-03-25 09:38:00,
2013-03-25 02:44:00,46.9,23.6,29.88,NNW,338,4.0,7.0,40,0.00,,,0.00,WUHU216DAVISVP2,2013-03-25 09:44:00,
2013-03-25 02:49:00,46.8,23.5,29.88,NNW,338,1.0,7.0,40,0.00,,,0.00,WUHU216DAVISVP2,2013-03-25 09:49:00,
2013-03-25 02:54:00,45.7,23.7,29.88,NNW,338,0.0,7.0,42,0.00,,,0.00,WUHU216DAVISVP2,2013-03-25 09:54:00,
2013-03-25 02:59:00,45.1,23.2,29.88,NNW,338,0.0,6.0,42,0.00,,,0.00,WUHU216DAVISVP2,2013-03-25 09:59:00,
2013-03-25 03:04:00,44.9,23.6,29.88,NNW,338,2.0,4.0,43,0.00,,,0.00,WUHU216DAVISVP2,2013-03-25 10:04:00,
2013-03-25 03:09:00,45.3,24.0,29.88,NNW,338,0.0,4.0,43,0.00,,,0.00,WUHU216DAVISVP2,2013-03-25 10:09:00,
2013-03-25 03:15:00,45.1,23.2,29.88,NNW,338,3.0,4.0,42,0.00,,,0.00,WUHU216DAVISVP2,2013-03-25 10:15:00,
2013-03-25 03:20:00,44.3,23.6,29.88,SW,233,4.0,6.0,44,0.00,,,0.00,WUHU216DAVISVP2,2013-03-25 10:20:00,
2013-03-25 03:25:00,44.5,23.8,29.88,SW,235,4.0,6.0,44,0.00,,,0.00,WUHU216DAVISVP2,2013-03-25 10:25:00,
2013-03-25 03:30:00,45.0,23.7,29.88,North,350,5.0,8.0,43,0.00,,,0.00,WUHU216DAVISVP2,2013-03-25 10:30:00,
2013-03-25 03:35:00,44.9,23.6,29.88,North,350,0.0,8.0,43,0.00,,,0.00,WUHU216DAVISVP2,2013-03-25 10:35:00,
2013-03-25 03:41:00,45.2,24.4,29.88,North,350,2.0,8.0,44,0.00,,,0.00,WUHU216DAVISVP2,2013-03-25 10:41:00,
2013-03-25 03:46:00,45.4,24.0,29.88,North,350,3.0,8.0,43,0.00,,,0.00,WUHU216DAVISVP2,2013-03-25 10:46:00,
2013-03-25 03:51:00,45.4,24.0,29.88,North,350,6.0,6.0,43,0.00,,,0.00,WUHU216DAVISVP2,2013-03-25 10:51:00,
2013-03-25 03:56:00,46.0,24.0,29.88,North,350,2.0,6.0,42,0.00,,,0.00,WUHU216DAVISVP2,2013-03-25 10:56:00,
2013-03-25 04:01:00,46.8,24.7,29.88,NNW,347,3.0,6.0,42,0.00,,,0.00,WUHU216DAVISVP2,2013-03-25 11:01:00,
2013-03-25 04:06:00,47.6,24.3,29.88,WSW,239,2.0,6.0,40,0.00,,,0.00,WUHU216DAVISVP2,2013-03-25 11:06:00,
2013-03-25 04:11:00,48.9,24.8,29.88,WSW,239,0.0,6.0,39,0.00,,,0.00,WUHU216DAVISVP2,2013-03-25 11:11:00,
2013-03-25 04:16:00,49.1,25.0,29.88,WSW,239,0.0,6.0,39,0.00,,,0.00,WUHU216DAVISVP2,2013-03-25 11:16:00,
2013-03-25 04:22:00,49.2,24.5,29.88,NNW,344,5.0,6.0,38,0.00,,,0.00,WUHU216DAVISVP2,2013-03-25 11:22:00,
2013-03-25 04:27:00,49.4,24.6,29.88,ENE,57,5.0,7.0,38,0.00,,,0.00,WUHU216DAVISVP2,2013-03-25 11:27:00,
2013-03-25 04:33:00,50.5,24.3,29.88,ENE,63,4.0,7.0,36,0.00,,,0.00,WUHU216DAVISVP2,2013-03-25 11:33:00,
2013-03-25 04:39:00,51.0,24.7,29.88,NW,317,4.0,7.0,36,0.00,,,0.00,WUHU216DAVISVP2,2013-03-25 11:39:00,
2013-03-25 04:44:00,50.6,24.4,29.88,NW,317,0.0,7.0,36,0.00,,,0.00,WUHU216DAVISVP2,2013-03-25 11:44:00,
2013-03-25 04:49:00,50.6,25.1,29.88,NW,317,2.0,7.0,37,0.00,,,0.00,WUHU216DAVISVP2,2013-03-25 11:49:00,
2013-03-25 04:54:00,50.6,24.4,29.88,NW,317,0.0,5.0,36,0.00,,,0.00,WUHU216DAVISVP2,2013-03-25 11:54:00,
2013-03-25 05:00:00,51.0,25.0,29.88,WSW,240,1.0,5.0,36,0.00,,,0.00,WUHU216DAVISVP2,2013-03-25 12:00:00,
2013-03-25 05:05:00,50.1,24.2,29.88,West,267,0.0,6.0,36,0.00,,,0.00,WUHU216DAVISVP2,2013-03-25 12:05:00,
2013-03-25 05:10:00,49.8,24.5,29.88,West,267,0.0,6.0,37,0.00,,,0.00,WUHU216DAVISVP2,2013-03-25 12:10:00,
2013-03-25 05:15:00,48.9,24.2,29.88,West,281,4.0,6.0,38,0.00,,,0.00,WUHU216DAVISVP2,2013-03-25 12:15:00,
2013-03-25 05:20:00,48.7,24.0,29.89,West,281,2.0,6.0,38,0.00,,,0.00,WUHU216DAVISVP2,2013-03-25 12:20:00,
2013-03-25 05:25:00,48.1,24.1,29.88,West,281,1.0,6.0,39,0.00,,,0.00,WUHU216DAVISVP2,2013-03-25 12:25:00,
2013-03-25 05:31:00,47.9,23.9,29.89,West,281,4.0,6.0,39,0.00,,,0.00,WUHU216DAVISVP2,2013-03-25 12:31:00,
2013-03-25 05:36:00,47.8,23.8,29.89,WNW,284,3.0,5.0,39,0.00,,,0.00,WUHU216DAVISVP2,2013-03-25 12:36:00,
2013-03-25 05:41:00,48.3,24.9,29.88,North,355,5.0,7.0,40,0.00,,,0.00,WUHU216DAVISVP2,2013-03-25 12:41:00,
2013-03-25 05:46:00,52.6,26.4,29.88,West,259,7.0,12.0,36,0.00,,,0.00,WUHU216DAVISVP2,2013-03-25 12:46:00,
2013-03-25 05:51:00,53.5,24.3,29.89,West,279,5.0,12.0,32,0.00,,,0.00,WUHU216DAVISVP2,2013-03-25 12:51:00,
2013-03-25 05:56:00,51.6,24.1,29.89,NNW,329,6.0,12.0,34,0.00,,,0.00,WUHU216DAVISVP2,2013-03-25 12:56:00,
2013-03-25 06:01:00,50.2,24.2,29.89,NNW,336,3.0,12.0,36,0.00,,,0.00,WUHU216DAVISVP2,2013-03-25 13:01:00,
2013-03-25 06:06:00,49.0,23.6,29.89,NNW,338,6.0,9.0,37,0.00,,,0.00,WUHU216DAVISVP2,2013-03-25 13:06:00,
2013-03-25 06:12:00,48.4,24.4,29.88,North,355,8.0,8.0,39,0.00,,,0.00,WUHU216DAVISVP2,2013-03-25 13:12:00,
2013-03-25 06:17:00,48.4,24.4,29.89,North,355,5.0,8.0,39,0.00,,,0.00,WUHU216DAVISVP2,2013-03-25 13:17:00,
2013-03-25 06:22:00,48.7,24.6,29.89,North,355,2.0,8.0,39,0.00,,,0.00,WUHU216DAVISVP2,2013-03-25 13:22:00,
2013-03-25 06:27:00,48.6,24.5,29.89,North,355,0.0,8.0,39,0.00,,,0.00,WUHU216DAVISVP2,2013-03-25 13:27:00,
2013-03-25 06:32:00,48.3,24.3,29.89,North,355,1.0,8.0,39,0.00,,,0.00,WUHU216DAVISVP2,2013-03-25 13:32:00,
2013-03-25 06:37:00,48.1,24.1,29.89,North,355,2.0,6.0,39,0.00,,,0.00,WUHU216DAVISVP2,2013-03-25 13:37:00,
2013-03-25 06:42:00,47.9,24.5,29.89,North,355,0.0,4.0,40,0.00,,,0.00,WUHU216DAVISVP2,2013-03-25 13:42:00,
2013-03-25 06:47:00,48.2,24.4,29.89,North,355,2.0,4.0,39,0.00,,,0.00,WUHU216DAVISVP2,2013-03-25 13:47:00,
2013-03-25 06:53:00,48.3,24.5,29.89,North,355,0.0,4.0,39,0.00,,,0.00,WUHU216DAVISVP2,2013-03-25 13:53:00,
2013-03-25 06:58:00,48.6,24.7,29.89,North,355,2.0,3.0,39,0.00,,,0.00,WUHU216DAVISVP2,2013-03-25 13:58:00,
2013-03-25 07:03:00,48.9,25.0,29.89,North,355,0.0,3.0,39,0.00,,,0.00,WUHU216DAVISVP2,2013-03-25 14:03:00,
2013-03-25 07:08:00,49.1,25.2,29.89,North,355,4.0,5.0,39,0.00,,,0.00,WUHU216DAVISVP2,2013-03-25 14:08:00,
2013-03-25 07:13:00,49.7,24.3,29.89,North,355,7.0,8.0,37,0.00,,,0.00,WUHU216DAVISVP2,2013-03-25 14:13:00,
2013-03-25 07:18:00,49.6,24.8,29.90,North,355,2.0,8.0,38,0.00,,,0.00,WUHU216DAVISVP2,2013-03-25 14:18:00,
2013-03-25 07:23:00,49.3,24.5,29.90,North,355,2.0,8.0,38,0.00,,,0.00,WUHU216DAVISVP2,2013-03-25 14:23:00,
2013-03-25 07:28:00,49.3,24.5,29.90,North,355,3.0,8.0,38,0.00,,,0.00,WUHU216DAVISVP2,2013-03-25 14:28:00,
2013-03-25 07:34:00,49.6,24.8,29.90,North,355,2.0,7.0,38,0.00,,,0.00,WUHU216DAVISVP2,2013-03-25 14:34:00,
2013-03-25 07:39:00,49.8,25.0,29.90,North,355,2.0,5.0,38,0.00,,,0.00,WUHU216DAVISVP2,2013-03-25 14:39:00,
2013-03-25 07:44:00,50.1,25.3,29.90,North,355,3.0,5.0,38,0.00,,,0.00,WUHU216DAVISVP2,2013-03-25 14:44:00,
2013-03-25 07:49:00,50.4,24.9,29.91,North,355,3.0,5.0,37,0.00,,,0.00,WUHU216DAVISVP2,2013-03-25 14:49:00,
2013-03-25 07:54:00,50.9,24.7,29.91,North,355,0.0,4.0,36,0.00,,,0.00,WUHU216DAVISVP2,2013-03-25 14:54:00,
2013-03-25 07:59:00,51.1,24.8,29.91,North,355,0.0,4.0,36,0.00,,,0.00,WUHU216DAVISVP2,2013-03-25 14:59:00,
2013-03-25 08:04:00,51.1,25.7,29.91,North,355,0.0,4.0,37,0.00,,,0.00,WUHU216DAVISVP2,2013-03-25 15:04:00,
2013-03-25 08:10:00,51.2,25.8,29.91,North,355,0.0,3.0,37,0.00,,,0.00,WUHU216DAVISVP2,2013-03-25 15:10:00,
2013-03-25 08:15:00,51.5,25.4,29.91,North,355,0.0,1.0,36,0.00,,,0.00,WUHU216DAVISVP2,2013-03-25 15:15:00,
2013-03-25 08:21:00,52.0,25.8,29.91,North,355,0.0,1.0,36,0.00,,,0.00,WUHU216DAVISVP2,2013-03-25 15:21:00,
2013-03-25 08:26:00,52.4,26.2,29.91,North,355,0.0,1.0,36,0.00,,,0.00,WUHU216DAVISVP2,2013-03-25 15:26:00,
2013-03-25 08:32:00,52.9,26.0,29.91,North,355,0.0,1.0,35,0.00,,,0.00,WUHU216DAVISVP2,2013-03-25 15:32:00,
2013-03-25 08:37:00,53.4,26.4,29.91,North,355,0.0,1.0,35,0.00,,,0.00,WUHU216DAVISVP2,2013-03-25 15:37:00,
2013-03-25 08:42:00,53.8,26.1,29.91,North,355,0.0,1.0,34,0.00,,,0.00,WUHU216DAVISVP2,2013-03-25 15:42:00,
2013-03-25 08:47:00,54.4,26.6,29.92,North,355,0.0,1.0,34,0.00,,,0.00,WUHU216DAVISVP2,2013-03-25 15:47:00,
2013-03-25 08:52:00,54.9,26.3,29.92,North,355,1.0,2.0,33,0.00,,,0.00,WUHU216DAVISVP2,2013-03-25 15:52:00,
2013-03-25 08:58:00,55.4,26.0,29.92,North,355,0.0,2.0,32,0.00,,,0.00,WUHU216DAVISVP2,2013-03-25 15:58:00,
2013-03-25 09:03:00,55.4,26.0,29.92,NE,49,5.0,6.0,32,0.00,,,0.00,WUHU216DAVISVP2,2013-03-25 16:03:00,
2013-03-25 09:08:00,55.3,25.9,29.92,NE,52,3.0,6.0,32,0.00,,,0.00,WUHU216DAVISVP2,2013-03-25 16:08:00,
2013-03-25 09:14:00,55.7,25.5,29.93,NE,54,5.0,6.0,31,0.00,,,0.00,WUHU216DAVISVP2,2013-03-25 16:14:00,
2013-03-25 09:19:00,56.3,26.0,29.93,NE,55,3.0,6.0,31,0.00,,,0.00,WUHU216DAVISVP2,2013-03-25 16:19:00,
2013-03-25 09:24:00,57.2,26.0,29.93,NE,55,1.0,6.0,30,0.00,,,0.00,WUHU216DAVISVP2,2013-03-25 16:24:00,
2013-03-25 09:30:00,58.1,26.0,29.93,ENE,63,2.0,6.0,29,0.00,,,0.00,WUHU216DAVISVP2,2013-03-25 16:30:00,
2013-03-25 09:35:00,58.5,25.5,29.93,ENE,70,5.0,5.0,28,0.00,,,0.00,WUHU216DAVISVP2,2013-03-25 16:35:00,
2013-03-25 09:41:00,58.6,25.6,29.93,ENE,74,2.0,5.0,28,0.00,,,0.00,WUHU216DAVISVP2,2013-03-25 16:41:00,
2013-03-25 09:46:00,59.0,25.9,29.93,ENE,74,0.0,5.0,28,0.00,,,0.00,WUHU216DAVISVP2,2013-03-25 16:46:00,
2013-03-25 09:51:00,59.6,25.5,29.93,ENE,74,3.0,7.0,27,0.00,,,0.00,WUHU216DAVISVP2,2013-03-25 16:51:00,
2013-03-25 09:56:00,59.7,25.5,29.93,ENE,74,3.0,7.0,27,0.00,,,0.00,WUHU216DAVISVP2,2013-03-25 16:56:00,
2013-03-25 10:01:00,60.1,25.8,29.93,ENE,74,2.0,7.0,27,0.00,,,0.00,WUHU216DAVISVP2,2013-03-25 17:01:00,
2013-03-25 10:07:00,60.5,25.3,29.93,ENE,74,0.0,7.0,26,0.00,,,0.00,WUHU216DAVISVP2,2013-03-25 17:07:00,
2013-03-25 10:12:00,60.7,25.4,29.94,ENE,74,4.0,7.0,26,0.00,,,0.00,WUHU216DAVISVP2,2013-03-25 17:12:00,
2013-03-25 10:17:00,60.8,25.5,29.93,East,82,5.0,7.0,26,0.00,,,0.00,WUHU216DAVISVP2,2013-03-25 17:17:00,
2013-03-25 10:23:00,61.3,25.0,29.93,East,82,2.0,7.0,25,0.00,,,0.00,WUHU216DAVISVP2,2013-03-25 17:23:00,
2013-03-25 10:28:00,61.7,25.4,29.93,East,82,3.0,7.0,25,0.00,,,0.00,WUHU216DAVISVP2,2013-03-25 17:28:00,
2013-03-25 10:33:00,62.0,25.7,29.93,East,82,2.0,6.0,25,0.00,,,0.00,WUHU216DAVISVP2,2013-03-25 17:33:00,
2013-03-25 10:38:00,62.5,25.2,29.93,East,100,7.0,7.0,24,0.00,,,0.00,WUHU216DAVISVP2,2013-03-25 17:38:00,
2013-03-25 10:43:00,62.7,25.2,29.93,ESE,123,5.0,8.0,24,0.00,,,0.00,WUHU216DAVISVP2,2013-03-25 17:43:00,
2013-03-25 10:48:00,62.3,25.9,29.93,SE,138,6.0,8.0,25,0.00,,,0.00,WUHU216DAVISVP2,2013-03-25 17:48:00,
2013-03-25 10:53:00,62.4,26.0,29.93,SSE,153,8.0,9.0,25,0.00,,,0.00,WUHU216DAVISVP2,2013-03-25 17:53:00,
2013-03-25 10:59:00,62.7,25.2,29.92,South,170,4.0,9.0,24,0.00,,,0.00,WUHU216DAVISVP2,2013-03-25 17:59:00,
2013-03-25 11:04:00,62.8,25.3,29.93,South,178,10.0,10.0,24,0.00,,,0.00,WUHU216DAVISVP2,2013-03-25 18:04:00,
2013-03-25 11:09:00,63.2,25.8,29.93,South,186,7.0,11.0,24,0.00,,,0.00,WUHU216DAVISVP2,2013-03-25 18:09:00,
2013-03-25 11:14:00,63.5,26.0,29.92,South,186,7.0,11.0,24,0.00,,,0.00,WUHU216DAVISVP2,2013-03-25 18:14:00,
2013-03-25 11:19:00,63.9,25.3,29.92,South,187,6.0,11.0,23,0.00,,,0.00,WUHU216DAVISVP2,2013-03-25 18:19:00,
2013-03-25 11:25:00,64.4,25.7,29.92,South,185,5.0,11.0,23,0.00,,,0.00,WUHU216DAVISVP2,2013-03-25 18:25:00,
2013-03-25 11:30:00,65.1,26.3,29.92,South,180,4.0,10.0,23,0.00,,,0.00,WUHU216DAVISVP2,2013-03-25 18:30:00,
2013-03-25 11:35:00,65.7,25.7,29.92,South,180,8.0,9.0,22,0.00,,,0.00,WUHU216DAVISVP2,2013-03-25 18:35:00,
2013-03-25 11:40:00,65.8,25.8,29.92,South,180,1.0,8.0,22,0.00,,,0.00,WUHU216DAVISVP2,2013-03-25 18:40:00,
2013-03-25 11:46:00,66.0,26.0,29.92,South,176,6.0,9.0,22,0.00,,,0.00,WUHU216DAVISVP2,2013-03-25 18:46:00,
2013-03-25 11:51:00,66.6,25.4,29.92,South,173,2.0,9.0,21,0.00,,,0.00,WUHU216DAVISVP2,2013-03-25 18:51:00,
2013-03-25 11:56:00,67.5,24.9,29.91,SE,136,8.0,9.0,20,0.00,,,0.00,WUHU216DAVISVP2,2013-03-25 18:56:00,
2013-03-25 12:01:00,67.8,25.2,29.91,SE,143,6.0,9.0,20,0.00,,,0.00,WUHU216DAVISVP2,2013-03-25 19:01:00,
2013-03-25 12:07:00,66.7,24.3,29.91,South,173,7.0,9.0,20,0.00,,,0.00,WUHU216DAVISVP2,2013-03-25 19:07:00,
2013-03-25 12:12:00,66.8,25.5,29.91,South,172,0.0,11.0,21,0.00,,,0.00,WUHU216DAVISVP2,2013-03-25 19:12:00,
2013-03-25 12:17:00,67.6,25.0,29.91,South,173,6.0,11.0,20,0.00,,,0.00,WUHU216DAVISVP2,2013-03-25 19:17:00,
2013-03-25 12:22:00,67.7,23.9,29.91,South,185,6.0,11.0,19,0.00,,,0.00,WUHU216DAVISVP2,2013-03-25 19:22:00,
2013-03-25 12:27:00,68.2,24.3,29.90,South,182,5.0,11.0,19,0.00,,,0.00,WUHU216DAVISVP2,2013-03-25 19:27:00,
2013-03-25 12:32:00,68.2,24.3,29.90,South,188,8.0,12.0,19,0.00,,,0.00,WUHU216DAVISVP2,2013-03-25 19:32:00,
2013-03-25 12:38:00,68.2,24.3,29.90,SSE,158,5.0,12.0,19,0.00,,,0.00,WUHU216DAVISVP2,2013-03-25 19:38:00,
2013-03-25 12:43:00,68.4,23.2,29.90,SSE,157,3.0,12.0,18,0.00,,,0.00,WUHU216DAVISVP2,2013-03-25 19:43:00,
2013-03-25 12:48:00,69.3,23.9,29.90,SE,143,5.0,12.0,18,0.00,,,0.00,WUHU216DAVISVP2,2013-03-25 19:48:00,
2013-03-25 12:53:00,68.9,23.6,29.90,South,169,2.0,11.0,18,0.00,,,0.00,WUHU216DAVISVP2,2013-03-25 19:53:00,
2013-03-25 12:58:00,68.6,23.3,29.89,South,180,5.0,11.0,18,0.00,,,0.00,WUHU216DAVISVP2,2013-03-25 19:58:00,
2013-03-25 13:03:00,68.9,22.2,29.89,South,169,4.0,10.0,17,0.00,,,0.00,WUHU216DAVISVP2,2013-03-25 20:03:00,
2013-03-25 13:09:00,69.0,22.3,29.89,South,174,5.0,10.0,17,0.00,,,0.00,WUHU216DAVISVP2,2013-03-25 20:09:00,
2013-03-25 13:14:00,68.9,23.6,29.89,South,184,4.0,12.0,18,0.00,,,0.00,WUHU216DAVISVP2,2013-03-25 20:14:00,
2013-03-25 13:19:00,69.5,21.3,29.88,SSE,163,6.0,12.0,16,0.00,,,0.00,WUHU216DAVISVP2,2013-03-25 20:19:00,
2013-03-25 13:24:00,69.6,21.4,29.88,SSE,163,6.0,12.0,16,0.00,,,0.00,WUHU216DAVISVP2,2013-03-25 20:24:00,
2013-03-25 13:29:00,69.6,21.4,29.87,SSE,164,5.0,9.0,16,0.00,,,0.00,WUHU216DAVISVP2,2013-03-25 20:29:00,
2013-03-25 13:34:00,69.5,21.3,29.87,SSE,163,6.0,9.0,16,0.00,,,0.00,WUHU216DAVISVP2,2013-03-25 20:34:00,
2013-03-25 13:39:00,69.6,21.4,29.87,South,185,7.0,10.0,16,0.00,,,0.00,WUHU216DAVISVP2,2013-03-25 20:39:00,
2013-03-25 13:45:00,69.6,19.8,29.87,South,185,7.0,10.0,15,0.00,,,0.00,WUHU216DAVISVP2,2013-03-25 20:45:00,
2013-03-25 13:50:00,69.4,19.7,29.87,South,178,6.0,10.0,15,0.00,,,0.00,WUHU216DAVISVP2,2013-03-25 20:50:00,
2013-03-25 13:55:00,69.5,21.3,29.86,South,178,3.0,10.0,16,0.00,,,0.00,WUHU216DAVISVP2,2013-03-25 20:55:00,
2013-03-25 14:00:00,69.7,21.4,29.86,South,179,4.0,10.0,16,0.00,,,0.00,WUHU216DAVISVP2,2013-03-25 21:00:00,
2013-03-25 14:05:00,70.2,21.8,29.86,South,179,7.0,9.0,16,0.00,,,0.00,WUHU216DAVISVP2,2013-03-25 21:05:00,
2013-03-25 14:11:00,70.4,20.5,29.86,South,178,1.0,8.0,15,0.00,,,0.00,WUHU216DAVISVP2,2013-03-25 21:11:00,
2013-03-25 14:16:00,70.8,20.8,29.85,South,171,4.0,8.0,15,0.00,,,0.00,WUHU216DAVISVP2,2013-03-25 21:16:00,
2013-03-25 14:21:00,70.6,20.6,29.85,South,171,5.0,9.0,15,0.00,,,0.00,WUHU216DAVISVP2,2013-03-25 21:21:00,
2013-03-25 14:26:00,70.6,20.6,29.85,South,171,0.0,9.0,15,0.00,,,0.00,WUHU216DAVISVP2,2013-03-25 21:26:00,
2013-03-25 14:32:00,71.0,20.9,29.85,South,171,5.0,9.0,15,0.00,,,0.00,WUHU216DAVISVP2,2013-03-25 21:32:00,
2013-03-25 14:37:00,70.9,20.9,29.84,South,171,6.0,9.0,15,0.00,,,0.00,WUHU216DAVISVP2,2013-03-25 21:37:00,
2013-03-25 14:42:00,71.0,19.3,29.84,South,171,4.0,9.0,14,0.00,,,0.00,WUHU216DAVISVP2,2013-03-25 21:42:00,
2013-03-25 14:47:00,71.2,19.4,29.84,South,171,3.0,9.0,14,0.00,,,0.00,WUHU216DAVISVP2,2013-03-25 21:47:00,
2013-03-25 14:52:00,71.8,19.9,29.84,South,170,6.0,9.0,14,0.00,,,0.00,WUHU216DAVISVP2,2013-03-25 21:52:00,
2013-03-25 14:57:00,72.0,20.1,29.83,SSE,165,8.0,9.0,14,0.00,,,0.00,WUHU216DAVISVP2,2013-03-25 21:57:00,
2013-03-25 15:03:00,72.1,18.4,29.83,SSE,153,5.0,13.0,13,0.00,,,0.00,WUHU216DAVISVP2,2013-03-25 22:03:00,
2013-03-25 15:08:00,72.6,18.8,29.83,SSE,150,4.0,13.0,13,0.00,,,0.00,WUHU216DAVISVP2,2013-03-25 22:08:00,
2013-03-25 15:13:00,73.1,19.2,29.82,SSE,156,5.0,13.0,13,0.00,,,0.00,WUHU216DAVISVP2,2013-03-25 22:13:00,
2013-03-25 15:18:00,73.6,17.7,29.82,SE,130,8.0,13.0,12,0.00,,,0.00,WUHU216DAVISVP2,2013-03-25 22:18:00,
2013-03-25 15:24:00,73.6,17.7,29.82,SE,138,10.0,13.0,12,0.00,,,0.00,WUHU216DAVISVP2,2013-03-25 22:24:00,
2013-03-25 15:29:00,73.9,17.9,29.82,SSE,152,13.0,14.0,12,0.00,,,0.00,WUHU216DAVISVP2,2013-03-25 22:29:00,
2013-03-25 15:34:00,73.6,17.8,29.82,SSE,152,10.0,14.0,12,0.00,,,0.00,WUHU216DAVISVP2,2013-03-25 22:34:00,
2013-03-25 15:39:00,73.7,17.9,29.82,SSE,159,6.0,14.0,12,0.00,,,0.00,WUHU216DAVISVP2,2013-03-25 22:39:00,
2013-03-25 15:44:00,73.9,18.0,29.81,East,98,6.0,14.0,12,0.00,,,0.00,WUHU216DAVISVP2,2013-03-25 22:44:00,
2013-03-25 15:49:00,74.2,18.1,29.81,South,180,7.0,13.0,12,0.00,,,0.00,WUHU216DAVISVP2,2013-03-25 22:49:00,
2013-03-25 15:55:00,74.2,18.1,29.81,ESE,105,10.0,14.0,12,0.00,,,0.00,WUHU216DAVISVP2,2013-03-25 22:55:00,
2013-03-25 16:00:00,74.4,18.3,29.81,SE,128,2.0,14.0,12,0.00,,,0.00,WUHU216DAVISVP2,2013-03-25 23:00:00,
2013-03-25 16:05:00,74.8,16.5,29.81,SSE,163,7.0,15.0,11,0.00,,,0.00,WUHU216DAVISVP2,2013-03-25 23:05:00,
2013-03-25 16:11:00,75.1,16.7,29.81,South,174,6.0,15.0,11,0.00,,,0.00,WUHU216DAVISVP2,2013-03-25 23:11:00,
2013-03-25 16:16:00,75.3,21.0,29.81,SW,229,9.0,14.0,13,0.00,,,0.00,WUHU216DAVISVP2,2013-03-25 23:16:00,
2013-03-25 16:21:00,74.6,22.2,29.81,SSW,205,16.0,18.0,14,0.00,,,0.00,WUHU216DAVISVP2,2013-03-25 23:21:00,
2013-03-25 16:26:00,73.8,23.2,29.81,SW,219,14.0,22.0,15,0.00,,,0.00,WUHU216DAVISVP2,2013-03-25 23:26:00,
2013-03-25 16:32:00,73.6,23.0,29.80,SW,227,16.0,22.0,15,0.00,,,0.00,WUHU216DAVISVP2,2013-03-25 23:32:00,
2013-03-25 16:37:00,73.5,22.9,29.80,SW,226,8.0,22.0,15,0.00,,,0.00,WUHU216DAVISVP2,2013-03-25 23:37:00,
2013-03-25 16:42:00,73.3,22.8,29.80,SW,236,15.0,26.0,15,0.00,,,0.00,WUHU216DAVISVP2,2013-03-25 23:42:00,
2013-03-25 16:47:00,73.3,22.8,29.80,SW,225,18.0,26.0,15,0.00,,,0.00,WUHU216DAVISVP2,2013-03-25 23:47:00,
2013-03-25 16:53:00,72.7,22.3,29.80,SW,223,17.0,26.0,15,0.00,,,0.00,WUHU216DAVISVP2,2013-03-25 23:53:00,
2013-03-25 16:58:00,72.7,22.3,29.80,SSW,196,16.0,26.0,15,0.00,,,0.00,WUHU216DAVISVP2,2013-03-25 23:58:00,
2013-03-25 17:03:00,72.4,22.1,29.80,SW,217,13.0,22.0,15,0.00,,,0.00,WUHU216DAVISVP2,2013-03-26 00:03:00,
2013-03-25 17:08:00,72.3,23.6,29.80,SW,236,14.0,24.0,16,0.00,,,0.00,WUHU216DAVISVP2,2013-03-26 00:08:00,
2013-03-25 17:13:00,72.1,24.8,29.79,SSW,211,14.0,24.0,17,0.00,,,0.00,WUHU216DAVISVP2,2013-03-26 00:13:00,
2013-03-25 17:18:00,71.9,24.7,29.79,SW,229,17.0,24.0,17,0.00,,,0.00,WUHU216DAVISVP2,2013-03-26 00:18:00,
2013-03-25 17:24:00,71.8,24.6,29.79,SW,234,12.0,24.0,17,0.00,,,0.00,WUHU216DAVISVP2,2013-03-26 00:24:00,
2013-03-25 17:29:00,71.8,24.6,29.78,SW,235,13.0,24.0,17,0.00,,,0.00,WUHU216DAVISVP2,2013-03-26 00:29:00,
2013-03-25 17:34:00,71.7,25.9,29.78,SW,217,18.0,24.0,18,0.00,,,0.00,WUHU216DAVISVP2,2013-03-26 00:34:00,
2013-03-25 17:39:00,71.6,25.8,29.78,WSW,240,15.0,22.0,18,0.00,,,0.00,WUHU216DAVISVP2,2013-03-26 00:39:00,
2013-03-25 17:45:00,71.6,25.8,29.78,SW,225,13.0,21.0,18,0.00,,,0.00,WUHU216DAVISVP2,2013-03-26 00:45:00,
2013-03-25 17:50:00,71.8,26.0,29.78,SSW,213,12.0,21.0,18,0.00,,,0.00,WUHU216DAVISVP2,2013-03-26 00:50:00,
2013-03-25 17:55:00,71.9,26.0,29.78,WSW,238,15.0,21.0,18,0.00,,,0.00,WUHU216DAVISVP2,2013-03-26 00:55:00,
2013-03-25 18:00:00,71.9,26.0,29.79,SW,215,8.0,19.0,18,0.00,,,0.00,WUHU216DAVISVP2,2013-03-26 01:00:00,
2013-03-25 18:05:00,71.9,26.0,29.79,WSW,238,8.0,19.0,18,0.00,,,0.00,WUHU216DAVISVP2,2013-03-26 01:05:00,
2013-03-25 18:10:00,71.8,26.0,29.79,WSW,254,15.0,19.0,18,0.00,,,0.00,WUHU216DAVISVP2,2013-03-26 01:10:00,
2013-03-25 18:15:00,71.5,25.7,29.79,WSW,242,14.0,20.0,18,0.00,,,0.00,WUHU216DAVISVP2,2013-03-26 01:15:00,
2013-03-25 18:21:00,71.1,26.7,29.79,WSW,246,17.0,21.0,19,0.00,,,0.00,WUHU216DAVISVP2,2013-03-26 01:21:00,
2013-03-25 18:26:00,70.8,26.4,29.79,WSW,240,15.0,21.0,19,0.00,,,0.00,WUHU216DAVISVP2,2013-03-26 01:26:00,
2013-03-25 18:31:00,70.6,26.3,29.79,SW,233,12.0,21.0,19,0.00,,,0.00,WUHU216DAVISVP2,2013-03-26 01:31:00,
2013-03-25 18:36:00,70.4,26.1,29.79,SW,231,14.0,21.0,19,0.00,,,0.00,WUHU216DAVISVP2,2013-03-26 01:36:00,
2013-03-25 18:41:00,70.1,25.9,29.79,SW,215,7.0,19.0,19,0.00,,,0.00,WUHU216DAVISVP2,2013-03-26 01:41:00,
2013-03-25 18:46:00,69.8,26.9,29.79,SW,236,12.0,19.0,20,0.00,,,0.00,WUHU216DAVISVP2,2013-03-26 01:46:00,
2013-03-25 18:51:00,69.6,27.9,29.79,SW,232,12.0,17.0,21,0.00,,,0.00,WUHU216DAVISVP2,2013-03-26 01:51:00,
2013-03-25 18:56:00,69.3,28.8,29.80,SW,234,10.0,16.0,22,0.00,,,0.00,WUHU216DAVISVP2,2013-03-26 01:56:00,
2013-03-25 19:02:00,69.2,28.7,29.79,WSW,256,5.0,16.0,22,0.00,,,0.00,WUHU216DAVISVP2,2013-03-26 02:02:00,
2013-03-25 19:07:00,68.9,28.5,29.79,West,271,2.0,16.0,22,0.00,,,0.00,WUHU216DAVISVP2,2013-03-26 02:07:00,
2013-03-25 19:12:00,68.7,28.3,29.79,SW,235,2.0,16.0,22,0.00,,,0.00,WUHU216DAVISVP2,2013-03-26 02:12:00,
2013-03-25 19:17:00,68.5,29.2,29.79,South,182,9.0,9.0,23,0.00,,,0.00,WUHU216DAVISVP2,2013-03-26 02:17:00,
2013-03-25 19:22:00,68.3,29.0,29.79,South,173,3.0,9.0,23,0.00,,,0.00,WUHU216DAVISVP2,2013-03-26 02:22:00,
2013-03-25 19:27:00,67.8,28.6,29.80,South,173,3.0,9.0,23,0.00,,,0.00,WUHU216DAVISVP2,2013-03-26 02:27:00,
2013-03-25 19:32:00,67.5,29.4,29.79,WSW,255,3.0,9.0,24,0.00,,,0.00,WUHU216DAVISVP2,2013-03-26 02:32:00,
2013-03-25 19:37:00,67.2,29.2,29.79,West,274,1.0,8.0,24,0.00,,,0.00,WUHU216DAVISVP2,2013-03-26 02:37:00,
2013-03-25 19:42:00,67.0,29.0,29.80,West,259,5.0,8.0,24,0.00,,,0.00,WUHU216DAVISVP2,2013-03-26 02:42:00,
2013-03-25 19:47:00,67.0,28.9,29.80,SW,219,10.0,14.0,24,0.00,,,0.00,WUHU216DAVISVP2,2013-03-26 02:47:00,
2013-03-25 19:53:00,67.0,28.9,29.80,WSW,243,7.0,14.0,24,0.00,,,0.00,WUHU216DAVISVP2,2013-03-26 02:53:00,
2013-03-25 19:58:00,66.5,28.5,29.80,WSW,249,4.0,14.0,24,0.00,,,0.00,WUHU216DAVISVP2,2013-03-26 02:58:00,
2013-03-25 20:03:00,65.3,28.4,29.80,West,262,4.0,14.0,25,0.00,,,0.00,WUHU216DAVISVP2,2013-03-26 03:03:00,
2013-03-25 20:08:00,64.6,27.8,29.80,WNW,287,7.0,11.0,25,0.00,,,0.00,WUHU216DAVISVP2,2013-03-26 03:08:00,
2013-03-25 20:13:00,64.6,27.8,29.80,NW,312,9.0,9.0,25,0.00,,,0.00,WUHU216DAVISVP2,2013-03-26 03:13:00,
2013-03-25 20:18:00,64.2,27.5,29.80,NW,316,7.0,10.0,25,0.00,,,0.00,WUHU216DAVISVP2,2013-03-26 03:18:00,
2013-03-25 20:23:00,64.1,27.4,29.80,WSW,244,6.0,10.0,25,0.00,,,0.00,WUHU216DAVISVP2,2013-03-26 03:23:00,
2013-03-25 20:28:00,65.3,27.4,29.80,WSW,253,9.0,13.0,24,0.00,,,0.00,WUHU216DAVISVP2,2013-03-26 03:28:00,
2013-03-25 20:33:00,65.6,26.7,29.80,WSW,250,7.0,13.0,23,0.00,,,0.00,WUHU216DAVISVP2,2013-03-26 03:33:00,
2013-03-25 20:39:00,65.6,26.7,29.81,West,264,8.0,13.0,23,0.00,,,0.00,WUHU216DAVISVP2,2013-03-26 03:39:00,
2013-03-25 20:44:00,65.8,25.8,29.81,WSW,241,6.0,12.0,22,0.00,,,0.00,WUHU216DAVISVP2,2013-03-26 03:44:00,
2013-03-25 20:49:00,65.5,25.5,29.81,WSW,249,3.0,12.0,22,0.00,,,0.00,WUHU216DAVISVP2,2013-03-26 03:49:00,
2013-03-25 20:54:00,64.8,26.0,29.82,WSW,250,0.0,12.0,23,0.00,,,0.00,WUHU216DAVISVP2,2013-03-26 03:54:00,
2013-03-25 20:59:00,63.8,25.3,29.82,North,360,5.0,11.0,23,0.00,,,0.00,WUHU216DAVISVP2,2013-03-26 03:59:00,
2013-03-25 21:04:00,62.8,24.4,29.82,NNE,19,6.0,9.0,23,0.00,,,0.00,WUHU216DAVISVP2,2013-03-26 04:04:00,
2013-03-25 21:09:00,62.6,23.2,29.82,NNE,19,7.0,9.0,22,0.00,,,0.00,WUHU216DAVISVP2,2013-03-26 04:09:00,
2013-03-25 21:14:00,62.3,22.9,29.83,NNE,19,8.0,9.0,22,0.00,,,0.00,WUHU216DAVISVP2,2013-03-26 04:14:00,
2013-03-25 21:19:00,62.0,23.7,29.83,NNE,33,2.0,9.0,23,0.00,,,0.00,WUHU216DAVISVP2,2013-03-26 04:19:00,
2013-03-25 21:25:00,61.8,23.5,29.83,NNE,33,0.0,8.0,23,0.00,,,0.00,WUHU216DAVISVP2,2013-03-26 04:25:00,
2013-03-25 21:30:00,61.1,21.9,29.84,NNE,33,3.0,8.0,22,0.00,,,0.00,WUHU216DAVISVP2,2013-03-26 04:30:00,
2013-03-25 21:35:00,60.3,21.2,29.84,NNE,33,0.0,8.0,22,0.00,,,0.00,WUHU216DAVISVP2,2013-03-26 04:35:00,
2013-03-25 21:40:00,59.5,21.5,29.84,NNE,33,2.0,5.0,23,0.00,,,0.00,WUHU216DAVISVP2,2013-03-26 04:40:00,
2013-03-25 21:45:00,58.6,21.8,29.84,NNE,33,1.0,5.0,24,0.00,,,0.00,WUHU216DAVISVP2,2013-03-26 04:45:00,
2013-03-25 21:51:00,58.0,22.2,29.84,NNE,33,0.0,3.0,25,0.00,,,0.00,WUHU216DAVISVP2,2013-03-26 04:51:00,
2013-03-25 21:56:00,57.3,22.5,29.84,NNE,33,0.0,3.0,26,0.00,,,0.00,WUHU216DAVISVP2,2013-03-26 04:56:00,
2013-03-25 22:01:00,56.9,22.2,29.84,NNE,33,3.0,4.0,26,0.00,,,0.00,WUHU216DAVISVP2,2013-03-26 05:01:00,
2013-03-25 22:06:00,55.8,22.3,29.84,NNE,33,3.0,4.0,27,0.00,,,0.00,WUHU216DAVISVP2,2013-03-26 05:06:00,
2013-03-25 22:11:00,55.1,23.4,29.85,NNE,33,4.0,5.0,29,0.00,,,0.00,WUHU216DAVISVP2,2013-03-26 05:11:00,
2013-03-25 22:16:00,54.8,23.9,29.85,NNE,33,4.0,5.0,30,0.00,,,0.00,WUHU216DAVISVP2,2013-03-26 05:16:00,
2013-03-25 22:21:00,55.2,23.5,29.85,NNE,33,4.0,6.0,29,0.00,,,0.00,WUHU216DAVISVP2,2013-03-26 05:21:00,
2013-03-25 22:26:00,55.3,23.4,29.85,NNE,33,4.0,7.0,29,0.00,,,0.00,WUHU216DAVISVP2,2013-03-26 05:26:00,
2013-03-25 22:32:00,55.7,22.9,29.85,NNE,33,1.0,7.0,28,0.00,,,0.00,WUHU216DAVISVP2,2013-03-26 05:32:00,
2013-03-25 22:37:00,54.9,23.0,29.85,NNE,33,3.0,7.0,29,0.00,,,0.00,WUHU216DAVISVP2,2013-03-26 05:37:00,
2013-03-25 22:42:00,54.4,23.4,29.85,NNE,13,5.0,7.0,30,0.00,,,0.00,WUHU216DAVISVP2,2013-03-26 05:42:00,
2013-03-25 22:47:00,54.2,23.2,29.85,North,5,3.0,7.0,30,0.00,,,0.00,WUHU216DAVISVP2,2013-03-26 05:47:00,
2013-03-25 22:52:00,53.8,23.6,29.85,NNW,347,7.0,7.0,31,0.00,,,0.00,WUHU216DAVISVP2,2013-03-26 05:52:00,
2013-03-25 22:57:00,54.1,24.9,29.85,NW,312,3.0,8.0,32,0.00,,,0.00,WUHU216DAVISVP2,2013-03-26 05:57:00,
2013-03-25 23:02:00,54.2,24.9,29.85,SW,225,0.0,8.0,32,0.00,,,0.00,WUHU216DAVISVP2,2013-03-26 06:02:00,
2013-03-25 23:07:00,54.7,24.6,29.85,NW,313,5.0,8.0,31,0.00,,,0.00,WUHU216DAVISVP2,2013-03-26 06:07:00,
2013-03-25 23:12:00,55.1,26.3,29.85,NNW,348,6.0,7.0,33,0.00,,,0.00,WUHU216DAVISVP2,2013-03-26 06:12:00,
2013-03-25 23:18:00,55.8,26.1,29.85,WNW,294,0.0,8.0,32,0.00,,,0.00,WUHU216DAVISVP2,2013-03-26 06:18:00,
2013-03-25 23:23:00,55.7,25.3,29.85,NNW,334,0.0,8.0,31,0.00,,,0.00,WUHU216DAVISVP2,2013-03-26 06:23:00,
2013-03-25 23:28:00,55.7,26.8,29.85,North,355,4.0,8.0,33,0.00,,,0.00,WUHU216DAVISVP2,2013-03-26 06:28:00,
2013-03-25 23:34:00,55.3,27.2,29.85,North,355,5.0,6.0,34,0.00,,,0.00,WUHU216DAVISVP2,2013-03-26 06:34:00,
2013-03-25 23:39:00,54.9,26.8,29.85,North,355,9.0,9.0,34,0.00,,,0.00,WUHU216DAVISVP2,2013-03-26 06:39:00,
2013-03-25 23:44:00,56.1,26.4,29.85,NNE,14,4.0,10.0,32,0.00,,,0.00,WUHU216DAVISVP2,2013-03-26 06:44:00,
2013-03-25 23:49:00,55.8,26.1,29.85,NNE,14,0.0,10.0,32,0.00,,,0.00,WUHU216DAVISVP2,2013-03-26 06:49:00,
2013-03-25 23:54:00,55.2,25.6,29.85,NNE,14,3.0,10.0,32,0.00,,,0.00,WUHU216DAVISVP2,2013-03-26 06:54:00,
2013-03-25 23:59:00,55.2,25.6,29.85,WNW,296,6.0,12.0,32,0.00,,,0.00,WUHU216DAVISVP2,2013-03-26 06:59:00,